Location: Tamazert
(32.6352°N, 5.2072°W)
Time: 00:18:24
(UTC+00:00)

Vanguard 1 Rocket - Pass Details

Date: 10 October 2022
Orbit: 650 x 4225 km, 34.3° (Epoch: 05 December)

Event Time Altitude Azimuth Distance (km) Brightness Sun altitude
Rises 19:48:30 0° 264° (W) 8,460 13.6 -24.9°
Reaches altitude 10° 19:54:40 10° 265° (W) 7,310 12.9 -26.1°
Maximum altitude 20:18:46 85° 356° (N) 2,919 9.7 -31.1°
Enters shadow 20:24:26 49° 81° (E) 2,969 9.5 -32.3°
